www.pogodaiklimat.ru

Погода и климат >> Архив погоды >> Россия >> Коми >> Воркута


АРХИВ ПОГОДЫ в Воркуте

Время (UTC), дата Ветер
(напр.,м/с)
 
Видим.   Явления Облачность Т
(С)
Тd
(С)
f
(%)
Тe
(С)
Тes
(С)
Комфортность P
(гПа)
Po
(гПа)
Тmin
(С)
Tmax
(С)
R
(мм)
R24
(мм)
S
(см)
00 16.04 С 15-22
{24}
700 м сильная метель ?/? -15.4 -17.3 85 -30 -30 очень
холодно
1010.2 987.4
03 16.04 С 16-22
{23}
500 м сильная метель ?/? -17.7 -19.6 85 -33 -33 опасность
обморожения
1014.1 991.0 -17.9 0.5 141
06 16.04 С 15-20
{23}
2500 м метель 10/3 300 м
[Sc Ac und]
-18.7 -21.3 80 -34 -34 опасность
обморожения
1019.3 996.1 -18.7
09 16.04 С 14-19
{20}
3400 м метель 8/0
[Ac trans]
-16.1 -18.8 80 -30 -30 очень
холодно
1022.5 999.4
12 16.04 С 11-15
{19}
6000 м метель 4/0
[Ac trans]
-15.5 -18.2 80 -28 -28 очень
холодно
1026.4 1003.2
15 16.04 С 6
{15}
10 км {метель} ясно -16.0 -18.7 80 -26 -26 очень
холодно
1029.0 1005.8 -15.1 0.2
18 16.04 С 6
{15}
10 км {метель} ясно -20.1 -22.0 85 -31 -31 опасность
обморожения
1030.1 1006.5
21 16.04 С 5 10 км ясно -20.2 -22.1 85 -30 -30 очень
холодно
1030.5 1006.9
00 17.04 штиль 0
{10}
10 км 4/0
[Ci fib]
-20.8 -23.3 80 -21 -21 по сезону 1030.9 1007.3
03 17.04 Ю 4 10 км 8/0
[Ci fib]
-23.0 -25.6 79 -33 -31 опасность
обморожения
1030.6 1006.8 -23.4 137
06 17.04 Ю 7 10 км в посл. час снег 10/6 330 м
[Sc Ci]
-19.2 -21.1 85 -31 -30 опасность
обморожения
1028.5 1004.9
09 17.04 Ю 7 3700 м снег 10/10 450 м
[Sc]
-14.5 -16.5 85 -25 -25 очень
холодно
1025.6 1002.5
12 17.04 Ю 9-13
{14}
800 м сильная метель ?/? -11.4 -13.4 85 -22 -22 очень
холодно
1020.7 997.9
15 17.04 Ю 9-14
{14}
700 м сильная метель ?/? -8.7 -9.8 92 -19 -19 прохладно 1015.6 993.3 -8.5 0.5
18 17.04 З 10-12
{14}
800 м сильная метель ?/? -3.8 -4.3 96 -13 -13 по сезону 1011.3 989.4
21 17.04 СЗ 9-12
{14}
3400 м снег {метель} 10/10 120 м
[Frnb]
-1.7 -2.2 96 -10 -10 тепло 1009.5 987.8
00 18.04 З 9-10
{12}
3200 м снег {метель} 10/10 120 м
[Frnb]
-1.9 -2.4 96 -11 -11 тепло 1008.9 987.3
03 18.04 СЗ 8
{11}
2300 м снег 10/10 240 м
[Frnb]
-2.0 -2.6 96 -10 -10 тепло 1008.8 987.2 -9.2 4 146
06 18.04 СЗ 7-10
{11}
10 км в посл. час снег 10/6 330 м
[Cb cap Ac und]
-1.5 -2.6 92 -9 -9 по сезону 1009.4 987.9
09 18.04 З 7
{10}
10 км 10/8 240 м
[Cb cap Ac und]
-1.2 -3.2 86 -9 -9 по сезону 1011.3 989.8
12 18.04 З 7
{10}
10 км 10/6 600 м
[Cb cap Ac und]
-1.5 -3.5 86 -9 -9 по сезону 1012.7 991.0
15 18.04 З 8-10
{11}
2900 м слаб. ливневой снег 10/10 150 м
[Cb cap]
-1.4 -2.2 94 -9 -9 по сезону 1011.3 989.8 -0.8 0.3
18 18.04 З 8
{11}
5000 м слаб. дождь со снегом [диам. гололёда 0 мм] 10/10 180 м
[St]
-1.5 -2.0 96 -10 -10 по сезону 1010.2 988.5
21 18.04 СЗ 8-12
{13}
10 км слаб. снег {морось} [диам. гололёда 2 мм] 10/10 240 м
[Frnb]
-1.7 -2.5 94 -10 -10 тепло 1009.0 987.4
00 19.04 СЗ 8-12
{13}
10 км позёмок {снег} [диам. гололёда 2 мм] 10/10 210 м
[Frnb]
-3.7 -4.8 92 -12 -12 по сезону 1009.6 987.7
03 19.04 С 4
{12}
10 км {метель} [диам. гололёда 2 мм] 4/0
[Ac trans]
-8.9 -10.9 85 -16 -15 по сезону 1012.7 990.5 -8.9 0.6 147
06 19.04 СЗ 4 10 км пыльная буря [диам. гололёда 2 мм] 6/0
[Ac trans]
-7.7 -9.9 84 -14 -12 по сезону 1013.5 991.3 -9.1
09 19.04 СЗ 5 10 км 8/5 600 м
[Sc Ac trans]
-6.3 -8.6 84 -14 -13 по сезону 1016.0 993.9
12 19.04 СЗ 7
{10}
10 км 8/8 300 м
[Sc]
-5.6 -8.2 82 -14 -14 по сезону 1017.3 995.2
15 19.04 СЗ 6
{10}
10 км 8/0
[Ac trans Ci fib]
-7.0 -9.1 85 -15 -15 по сезону 1017.4 995.3 -5.4
18 19.04 З 4
{10}
10 км 10/8 630 м
[Sc Ac und]
-6.5 -8.5 86 -13 -13 по сезону 1017.5 995.4
21 19.04 ЮЗ 2 6000 м слаб. снег 10/10 700 м
[Sc]
-6.1 -7.2 92 -11 -11 по сезону 1017.1 995.0
00 20.04 СЗ 3 10 км {снег} 10/10 120 м
[St]
-5.9 -6.3 97 -12 -12 по сезону 1016.5 994.4
03 20.04 З 3 10 км слаб. снег 10/6 240 м
[Frnb As op]
-5.2 -6.2 93 -11 -11 по сезону 1015.8 993.8 -7.8 1 156
06 20.04 Ю 3 3400 м слаб. ливневой снег 10/10 300 м
[Cb cap]
-4.6 -5.5 93 -10 -10 по сезону 1015.6 993.6
09 20.04 Ю 3 7000 м слаб. ливневой снег 10/10 180 м
[Cb cap]
-1.9 -3.1 91 -7 -7 по сезону 1015.1 993.3
12 20.04 СЗ 6 6000 м 10/10 180 м
[Cb cap]
-0.4 -1.3 94 -7 -7 по сезону 1014.3 992.7
15 20.04 СЗ 4 3900 м слаб. ливневой снег 10/10 150 м
[Cb cap]
-1.0 -1.7 95 -7 -7 тепло 1013.7 992.2 -0.3 1
18 20.04 З 9-10
{11}
5000 м слаб. ливневой снег 10/10 150 м
[Cb cap]
-1.4 -2.2 94 -10 -10 по сезону 1012.3 990.8
21 20.04 ЮЗ 8
{10}
10 км в посл. час ливневой снег 10/10 150 м
[Cb cap]
-1.1 -1.8 95 -9 -9 тепло 1010.2 988.7
00 21.04 ЮЗ 9-10
{11}
1900 м слаб. ливневой снег 10/10 180 м
[Cb cap]
-1.2 -1.6 97 -10 -10 тепло 1007.0 985.6
03 21.04 З 8
{11}
9000 м слаб. ливневой снег 10/10 240 м
[Cb cap]
-0.6 -1.2 96 -8 -8 тепло 1005.7 984.3 -1.6 2 158
06 21.04 З 7
{10}
4000 м в посл. час снег {ливн. осадки} 10/10 150 м
[St]
+0.3 -0.5 94 -7 -7 тепло 1006.6 985.2
09 21.04 З 8-10
{11}
10 км 10/10 150 м
[St]
+0.6 -0.2 94 -7 -7 по сезону 1007.7 986.4
12 21.04 З 8
{11}
10 км {снег} 10/10 180 м
[St]
+0.3 -0.5 94 -7 -7 по сезону 1009.1 987.6
15 21.04 З 8
{10}
10 км в посл. час снег 10/10 270 м
[Frnb]
-0.2 -0.8 96 -8 -8 по сезону 1009.2 987.7 +0.7 0.4
18 21.04 З 7
{10}
9000 м слаб. ливневой снег 10/10 240 м
[Cb cap]
-0.5 -0.8 98 -8 -8 тепло 1008.6 987.2
21 21.04 ЮЗ 8
{10}
1800 м снег {ливн. осадки} 10/10 120 м
[Frnb]
+0.1 -0.2 98 -8 -8 тепло 1006.1 984.7
00 22.04 ЮЗ 10-13
{14}
2100 м слаб. снег 10/10 120 м
[Frnb]
+0.2 -0.1 98 -8 -8 тепло 1003.5 982.2
03 22.04 ЮЗ 10-15
{15}
500 м туман {снег} ?/? +0.3 0.0 98 -8 -8 тепло 1002.4 981.1 -0.7 4 158
06 22.04 ЮЗ 6
{15}
1300 м слаб. ливневой снег 10/10 120 м
[Cb cap]
+0.5 -0.7 92 -6 -6 тепло 1001.7 980.4
09 22.04 ЮЗ 9-10
{11}
200 м туман {ливн. осадки} ?/? +0.4 +0.1 98 -8 -8 по сезону 1000.9 979.6
12 22.04 ЮЗ 8-12
{13}
100 м туман {ливн. осадки} ?/? +0.5 +0.2 98 -7 -7 по сезону 1000.2 979.0
15 22.04 ЮЗ 8-12
{13}
200 м туман ?/? +0.3 0.0 98 -7 -7 тепло 999.6 978.3 +0.8 1
18 22.04 ЮЗ 11-16
{16}
2100 м слаб. ливневой снег {туман} 10/10 180 м
[Cb cap]
+0.2 -0.1 98 -9 -9 по сезону 998.4 977.2
21 22.04 СЗ 13-18
{19}
7000 м слаб. ливневой снег 10/10 450 м
[Cb cap]
-3.2 -4.6 90 -13 -13 по сезону 1000.1 978.5

 

Местоположение метеостанции Воркута (Коми, Россия): широта 67.48 долгота 63.97 высота над уровнем моря 172 м.

В архиве по умолчанию представлена погода в Воркуте за последнюю неделю. Архивные данные за месяц целиком и за предыдущие месяцы, начиная с января 2011 года, Вы можете получить, выбрав интересующий диапазон дат из раскрывающегося списка и нажав кнопку "Ввод!".


*Определитесь, кто Вы:
робот инопланетянин человек

Внимание! Время в таблицах - всемирное. Для получения местного времени необходимо прибавить поправку, которая равна 3 ч.

Смотрите также архив погоды в соседних городах и на ближайших метеорологических станциях:

Погода в Елецкой (Коми, Россия) (48 км)
Погода в Харпе (Ямало-Ненецкий АО, Россия) (109 км)
Погода в Салехарде (Ямало-Ненецкий АО, Россия) (158 км)
Погода в Петруни (Коми, Россия) (182 км)
Погода в Белоярске (Ямало-Ненецкий АО, Россия) (192 км)
Погода в Усть-Каре (Ненецкий АО, Россия) (201 км)
Погода в Питляре (Ямало-Ненецкий АО, Россия) (203 км)
Погода в Харуте (Ненецкий АО, Россия) (204 км)
Погода в Мужах (Ямало-Ненецкий АО, Россия) (236 км)
Погода в Хорей-Вере (Ненецкий АО, Россия) (254 км)

Пояснения к столбцам:

Ветер - указаны скорость ветра в м/с - средняя за 10 мин, порывы в срок и между сроками (в фигурных скобках) и направление, откуда дует ветер: С - северный, СВ - северо-восточный, В - восточный, ЮВ - юго-восточный, Ю - южный, ЮЗ - юго-западный, З - западный, СЗ - северо-западный.
Видимость - горизонтальная дальность видимости в метрах или километрах. При видимости от 1 до 10 км при отсутствии осадков обычно наблюдается дымка, при ухудшении видимости до 1 км и менее - туман. В сухую погоду видимость может ухудшаться дымом, пылью или мглою.
Явления - указаны атмосферные явления, наблюдавшиеся в срок или в последний час перед сроком; фигурными скобками обозначены явления, наблюдавшиеся между сроками (за 1-3 часа до срока); квадратными скобками обозначены град или гололедные отложения с указанием их диаметра в мм.
Облачность - указаны через наклонную черту общая и нижняя облачность в баллах и высота нижней границы облаков в метрах; квадратными скобками обозначены формы облаков: Ci - перистые, Cs - перисто-слоистые, Cc - перисто-кучевые, Ac - высококучевые, As - высокослоистые, Sc - слоисто-кучевые, Ns - слоисто-дождевые, Cu - кучевые, Cb - кучево-дождевые. Подробнее классификацию облаков см. в Атласе облаков (PDF).
T - Температура воздуха - температура, измеренная на высоте 2 м над землей.
Td - Температура точки росы - температура, при понижении до которой содержащийся в воздухе водяной пар достигнет насыщения.
f - Относительная влажность воздуха - влажноcть воздуха, измеренная на высоте 2 м над землей.
Te - Эффективная температура - температура, которую ощущает одетый по сезону человек в тени. Характеристика душности погоды. При расчете учитывается влияние влажности воздуха и скорости ветра на теплоощущения человека.
Tes - Эффективная температура на солнце - температура, которую ощущает человек, с поправкой на солнечный нагрев. Характеристика знойности погоды. Зависит от высоты солнца над горизонтом, облачности и скорости ветра. Ночью, в пасмурную погоду, а также при ветре 12 м/с и более поправка равна нулю.
P - Атмосферное давление - приведенное к уровню моря атмосферное давление.
Po - Атмосферное давление - измеренное на уровне метеостанции атмосферное давление.
Tmin - Минимальная температура - минимум температуры воздуха на высоте 2 м над землей.
Tmax - Максимальная температура - максимум температуры воздуха на высоте 2 м над землей.
R - Количество осадков - Количество выпавших осадков за период времени, мм. При наведении курсора мыши на число - период времени, за который выпало указанное количество осадков.
R24 - Количество осадков - Количество выпавших осадков за 24 часа, мм.
S - Снежный покров - Высота снежного покрова, см. При наведении курсора мыши на число - состояние снежного покрова и степень покрытия местности в баллах.